| time (UTC) | temp F | wind direction | speed knots | gust knots | rain 1hr in | rain 24hr in | rain mn in | humidity % | barometer mb |
| 20260507184552 | 50 | 275 | 7.0 | 15.6 | 0.00 | 0.00 | 0.00 | 52 | 1012.4 |
| 20260507183051 | 52 | 328 | 3.5 | 12.2 | 0.00 | 0.00 | 0.00 | 52 | 1012.3 |
| 20260507181551 | 51 | 320 | 4.3 | 11.3 | 0.00 | 0.00 | 0.00 | 53 | 1012.5 |
| 20260507180049 | 52 | 322 | 3.5 | 11.3 | 0.00 | 0.00 | 0.00 | 55 | 1012.5 |
| 20260507174549 | 51 | 290 | 3.5 | 11.3 | 0.00 | 0.00 | 0.00 | 55 | 1012.5 |
| 20260507173044 | 50 | 294 | 2.6 | 11.3 | 0.00 | 0.00 | 0.00 | 56 | 1012.6 |
| 20260507171543 | 50 | 313 | 2.6 | 9.6 | 0.00 | 0.00 | 0.00 | 58 | 1012.7 |
| 20260507170043 | 50 | 335 | 0.9 | 9.6 | 0.00 | 0.00 | 0.00 | 61 | 1012.9 |
| 20260507164540 | 49 | 267 | 5.2 | 13.9 | 0.00 | 0.00 | 0.00 | 59 | 1013.0 |
| 20260507163039 | 49 | 281 | 3.5 | 9.6 | 0.00 | 0.00 | 0.00 | 65 | 1013.2 |
| 20260507161540 | 48 | 286 | 5.2 | 14.8 | 0.00 | 0.00 | 0.00 | 60 | 1013.5 |
| 20260507160039 | 48 | 326 | 3.5 | 13.0 | 0.00 | 0.00 | 0.00 | 63 | 1013.5 |
| 20260507154535 | 48 | 325 | 1.7 | 11.3 | 0.00 | 0.00 | 0.00 | 66 | 1013.6 |
| 20260507153035 | 47 | 309 | 4.3 | 10.4 | 0.00 | 0.00 | 0.00 | 63 | 1013.7 |
| 20260507151533 | 47 | 331 | 0.9 | 12.2 | 0.00 | 0.00 | 0.00 | 66 | 1013.8 |
| 20260507150032 | 47 | 315 | 7.0 | 14.8 | 0.00 | 0.00 | 0.00 | 63 | 1013.8 |
| 20260507144534 | 47 | 308 | 5.2 | 11.3 | 0.00 | 0.00 | 0.00 | 65 | 1013.9 |
| 20260507143032 | 46 | 336 | 1.7 | 13.0 | 0.00 | 0.00 | 0.00 | 68 | 1013.9 |
| 20260507141526 | 45 | 317 | 0.9 | 8.7 | 0.00 | 0.00 | 0.00 | 69 | 1014.0 |
| 20260507140028 | 45 | 308 | 2.6 | 11.3 | 0.00 | 0.00 | 0.00 | 72 | 1014.0 |
| 20260507134527 | 45 | 294 | 1.7 | 9.6 | 0.00 | 0.00 | 0.00 | 71 | 1014.0 |
| 20260507133022 | 44 | 306 | 4.3 | 8.7 | 0.00 | 0.00 | 0.00 | 72 | 1014.0 |
| 20260507131523 | 43 | 300 | 0.0 | 7.8 | 0.00 | 0.00 | 0.00 | 76 | 1014.0 |
| 20260507130016 | 42 | 313 | 0.9 | 5.2 | 0.00 | 0.00 | 0.00 | 79 | 1014.1 |
| 20260507124518 | 41 | 290 | 2.6 | 7.8 | 0.00 | 0.00 | 0.00 | 78 | 1014.0 |
| 20260507123021 | 41 | 324 | 0.0 | 3.5 | 0.00 | 0.00 | 0.00 | 83 | 1013.9 |
| 20260507121513 | 40 | 309 | 0.0 | 0.0 | 0.00 | 0.00 | 0.00 | 87 | 1013.9 |
| 20260507120011 | 39 | 308 | 0.0 | 0.9 | 0.00 | 0.00 | 0.00 | 89 | 1013.9 |
| 20260507114510 | 38 | 286 | 0.0 | 0.0 | 0.00 | 0.00 | 0.00 | 91 | 1013.9 |
| 20260507113009 | 37 | 286 | 0.0 | 0.0 | 0.00 | 0.00 | 0.00 | 92 | 1013.8 |
| 20260507111510 | 37 | 286 | 0.0 | 0.0 | 0.00 | 0.00 | 0.00 | 92 | 1013.7 |
| 20260507110011 | 37 | 286 | 0.0 | 0.0 | 0.00 | 0.00 | 0.00 | 92 | 1013.5 |
| 20260507104505 | 36 | 286 | 0.0 | 0.0 | 0.00 | 0.00 | 0.00 | 91 | 1013.5 |
| 20260507103007 | 36 | 286 | 0.0 | 0.0 | 0.00 | 0.00 | 0.00 | 93 | 1013.1 |
| 20260507101507 | 36 | 286 | 0.0 | 0.0 | 0.00 | 0.00 | 0.00 | 94 | 1013.2 |
| 20260507094603 | 36 | 286 | 0.0 | 0.0 | 0.00 | 0.00 | 0.00 | 94 | 1013.0 |
| 20260507093058 | 37 | 286 | 0.0 | 0.0 | 0.00 | 0.00 | 0.00 | 94 | 1013.0 |
| 20260507091603 | 37 | 286 | 0.0 | 4.3 | 0.00 | 0.00 | 0.00 | 94 | 1013.1 |
| 20260507090111 | 37 | 279 | 0.0 | 5.2 | 0.00 | 0.00 | 0.00 | 94 | 1013.1 |
| 20260507084553 | 38 | 295 | 0.0 | 5.2 | 0.00 | 0.00 | 0.00 | 94 | 1013.1 |
| 20260507083050 | 38 | 305 | 0.9 | 3.5 | 0.00 | 0.00 | 0.00 | 95 | 1012.9 |
| 20260507081555 | 39 | 302 | 0.0 | 3.5 | 0.00 | 0.00 | 0.00 | 95 | 1012.9 |
| 20260507080045 | 39 | 301 | 0.0 | 4.3 | 0.00 | 0.00 | 0.00 | 95 | 1012.8 |
| 20260507074544 | 40 | 305 | 0.0 | 3.5 | 0.00 | 0.00 | 0.00 | 95 | 1012.7 |
| 20260507073055 | 40 | 298 | 0.9 | 7.0 | 0.00 | 0.00 | 0.00 | 95 | 1012.8 |
| 20260507071542 | 40 | 269 | 0.0 | 4.3 | 0.00 | 0.00 | 0.00 | 96 | 1012.9 |
| 20260507070058 | 41 | 303 | 1.7 | 5.2 | 0.00 | 0.00 | 0.00 | 96 | 1012.8 |
| 20260507064539 | 41 | 295 | 1.7 | 5.2 | 0.00 | 0.00 | 0.00 | 96 | 1012.7 |
| 20260507063036 | 41 | 297 | 0.0 | 1.7 | 0.00 | 0.00 | 0.00 | 96 | 1012.5 |
| 20260507061536 | 41 | 298 | 1.7 | 7.8 | 0.00 | 0.00 | 0.00 | 96 | 1012.7 |
| 20260507060040 | 42 | 271 | 2.6 | 8.7 | 0.00 | 0.00 | 0.00 | 96 | 1012.6 |
| 20260507054531 | 42 | 291 | 0.0 | 4.3 | 0.00 | 0.00 | 0.00 | 96 | 1012.6 |
| 20260507053031 | 42 | 290 | 0.0 | 5.2 | 0.00 | 0.00 | 0.00 | 96 | 1012.6 |
| 20260507051528 | 42 | 284 | 0.0 | 2.6 | 0.00 | 0.00 | 0.00 | 96 | 1012.7 |
| 20260507050032 | 42 | 281 | 0.0 | 0.0 | 0.00 | 0.00 | 0.00 | 96 | 1012.7 |
| 20260507044540 | 43 | 282 | 0.0 | 4.3 | 0.00 | 0.00 | 0.00 | 96 | 1012.5 |
| 20260507043027 | 43 | 281 | 0.0 | 0.0 | 0.00 | 0.00 | 0.00 | 96 | 1012.4 |
| 20260507041524 | 43 | 281 | 0.0 | 4.3 | 0.00 | 0.00 | 0.00 | 96 | 1012.4 |
| 20260507040023 | 43 | 279 | 0.9 | 6.1 | 0.00 | 0.00 | 0.00 | 96 | 1012.6 |
| 20260507034521 | 43 | 329 | 0.0 | 2.6 | 0.00 | 0.00 | 0.00 | 96 | 1012.5 |
| 20260507033020 | 43 | 265 | 0.0 | 0.0 | 0.00 | 0.00 | 0.00 | 97 | 1012.6 |
| 20260507031519 | 43 | 265 | 0.0 | 0.0 | 0.00 | 0.00 | 0.00 | 97 | 1012.4 |
| 20260507030017 | 44 | 262 | 0.9 | 5.2 | 0.00 | 0.00 | 0.00 | 97 | 1012.4 |
| 20260507024516 | 44 | 276 | 0.9 | 6.1 | 0.00 | 0.00 | 0.00 | 97 | 1012.3 |
| 20260507023014 | 44 | 284 | 0.9 | 3.5 | 0.00 | 0.00 | 0.00 | 97 | 1012.4 |
| 20260507021512 | 44 | 284 | 1.7 | 6.1 | 0.00 | 0.00 | 0.00 | 97 | 1012.5 |
| 20260507020010 | 45 | 298 | 0.0 | 4.3 | 0.00 | 0.00 | 0.00 | 97 | 1012.8 |
| 20260507014506 | 45 | 303 | 0.9 | 4.3 | 0.00 | 0.00 | 0.00 | 97 | 1012.7 |
| 20260507013006 | 45 | 277 | 0.0 | 3.5 | 0.00 | 0.00 | 0.00 | 97 | 1012.5 |
| 20260507011505 | 45 | 281 | 0.9 | 7.8 | 0.00 | 0.00 | 0.00 | 98 | 1012.6 |
| 20260507010120 | 46 | 286 | 0.9 | 4.3 | 0.00 | 0.00 | 0.00 | 98 | 1012.4 |
| 20260507004558 | 46 | 282 | 0.0 | 3.5 | 0.00 | 0.00 | 0.00 | 98 | 1011.9 |
| 20260507003056 | 46 | 284 | 0.0 | 0.0 | 0.00 | 0.00 | 0.00 | 98 | 1011.6 |
| 20260507001604 | 46 | 284 | 0.0 | 0.0 | 0.00 | 0.00 | 0.00 | 97 | 1011.2 |
| 20260507000053 | 46 | 284 | 0.0 | 0.0 | 0.00 | 0.00 | 0.00 | 97 | 1011.1 |
| 20260506234555 | 46 | 284 | 0.0 | 0.0 | 0.00 | 0.00 | 0.00 | 97 | 1011.0 |
| 20260506233054 | 46 | 284 | 0.0 | 0.0 | 0.00 | 0.00 | 0.00 | 97 | 1010.9 |
| 20260506231550 | 46 | 284 | 0.0 | 0.0 | 0.00 | 0.00 | 0.00 | 97 | 1010.7 |
| 20260506230055 | 46 | 284 | 0.0 | 0.0 | 0.00 | 0.00 | 0.00 | 97 | 1010.6 |
| 20260506224550 | 46 | 283 | 0.0 | 1.7 | 0.00 | 0.00 | 0.00 | 97 | 1010.4 |
| 20260506223049 | 46 | 282 | 0.0 | 2.6 | 0.00 | 0.00 | 0.00 | 97 | 1010.2 |
| 20260506221549 | 47 | 315 | 0.0 | 1.7 | 0.00 | 0.00 | 0.00 | 98 | 1010.1 |
| 20260506220051 | 47 | 314 | 0.0 | 4.3 | 0.00 | 0.00 | 0.00 | 98 | 1010.0 |
| 20260506214548 | 47 | 318 | 0.9 | 4.3 | 0.00 | 0.00 | 0.00 | 98 | 1009.7 |
| 20260506213047 | 47 | 329 | 1.7 | 6.1 | 0.00 | 0.00 | 0.00 | 98 | 1009.4 |
| 20260506211546 | 48 | 281 | 0.0 | 5.2 | 0.00 | 0.00 | 0.00 | 98 | 1009.1 |
| 20260506210050 | 48 | 310 | 1.7 | 5.2 | 0.00 | 0.00 | 0.00 | 99 | 1008.9 |
| 20260506204545 | 47 | 325 | 1.7 | 8.7 | 0.00 | 0.00 | 0.00 | 99 | 1008.9 |
| 20260506203051 | 47 | 293 | 0.0 | 5.2 | 0.00 | 0.00 | 0.00 | 99 | 1008.7 |
| 20260506201604 | 47 | 284 | 0.9 | 4.3 | 0.00 | 0.00 | 0.00 | 99 | 1008.6 |
| 20260506200043 | 47 | 268 | 2.6 | 7.0 | 0.00 | 0.00 | 0.00 | 99 | 1008.6 |
| 20260506194550 | 47 | 279 | 0.0 | 6.1 | 0.00 | 0.00 | 0.00 | 99 | 1008.6 |
| 20260506193045 | 47 | 267 | 0.0 | 6.1 | 0.00 | 0.00 | 0.00 | 99 | 1008.5 |
| 20260506191543 | 47 | 284 | 0.0 | 7.8 | 0.00 | 0.00 | 0.00 | 99 | 1008.4 |
| 20260506190039 | 46 | 292 | 0.0 | 5.2 | 0.00 | 0.00 | 0.00 | 99 | 1008.3 |